, AK

(GMT )
Denali Park

Weather History for PAIN - March, 2013

Change the Weather History Date:

Wednesday, March 6, 2013

  Actual Average Record
Temperature  
Mean Temperature 20 °F -  
Max Temperature 33 °F 21 °F 47 °F (1984)
Min Temperature 8 °F -1 °F -43 °F (1971)
Degree Days  
Heating Degree Days 44    
Moisture  
Dew Point 14 °F    
Average Humidity 73    
Maximum Humidity 92    
Minimum Humidity 48    
Precipitation  
Precipitation 0.00 in - - ()
Sea Level Pressure  
Sea Level Pressure 29.82 in    
Wind  
Wind Speed 3 mph (SSW)    
Max Wind Speed 10 mph    
Max Gust Speed 20 mph    
Visibility 10 miles    
Events      
Averages and records for this station are not official NWS values.
T = Trace of Precipitation, MM = Missing Value Source: NWS Daily Summary

Daily Weather History Graph

Daily Weather History Graph

Search for Another Location

Airport or City:

Trip Planner

Search our weather history database for the weather conditions in past years. The results will help you decide how hot, cold, wet, or windy it might be!

Date:

Astronomy

Mar. 06, 2013 Rise Set
Actual Time 7:43 AM AKST 6:31 PM AKST
Civil Twilight 6:56 AM AKST 7:18 PM AKST
Nautical Twilight 6:02 AM AKST 8:13 PM AKST
Astronomical Twilight 5:04 AM AKST 9:11 PM AKST
Moon 5:35 AM AKST (3/6) 11:52 AM AKST (3/6)
Length of Visible Light 12h 22m
Length of Day
10h 48m
Waning Crescent, 28% of the Moon is Illuminated
Mar 6
Waning Crescent
Mar 11
New
Mar 19
First Quarter
Mar 27
Full
Apr 2
Last Quarter

Hourly Weather History & Observations

Time (AKST) Temp. Windchill Dew Point Humidity Pressure Visibility Wind Dir Wind Speed Gust Speed Precip Events Conditions
12:16 AM 21.2 °F 13.6 °F 15.8 °F 80% 29.85 in 10.0 mi SW 5.8 mph - N/A   Clear
12:36 AM 21.2 °F 16.4 °F 15.8 °F 80% 29.84 in 10.0 mi WSW 3.5 mph - N/A   Clear
12:56 AM 19.4 °F 12.8 °F 14.0 °F 80% 29.84 in 10.0 mi WSW 4.6 mph - N/A   Clear
1:16 AM 17.6 °F 10.7 °F 12.2 °F 79% 29.83 in 10.0 mi WSW 4.6 mph - N/A   Clear
1:36 AM 21.2 °F - 14.0 °F 74% 29.83 in 10.0 mi Calm Calm - N/A   Clear
1:56 AM 19.4 °F 11.5 °F 12.2 °F 74% 29.83 in 10.0 mi West 5.8 mph - N/A   Clear
2:16 AM 17.6 °F 10.7 °F 12.2 °F 79% 29.83 in 10.0 mi SW 4.6 mph - N/A   Clear
2:36 AM 15.8 °F - 12.2 °F 86% 29.83 in 10.0 mi Calm Calm - N/A   Clear
2:56 AM 17.6 °F - 12.2 °F 79% 29.83 in 10.0 mi Calm Calm - N/A   Clear
3:16 AM 17.6 °F 12.3 °F 12.2 °F 79% 29.82 in 10.0 mi West 3.5 mph - N/A   Clear
3:36 AM 17.6 °F 12.3 °F 12.2 °F 79% 29.82 in 10.0 mi WSW 3.5 mph - N/A   Clear
3:56 AM 17.6 °F - 12.2 °F 79% 29.81 in 10.0 mi Calm Calm - N/A   Clear
4:16 AM 12.2 °F 6.1 °F 8.6 °F 85% 29.82 in 10.0 mi SW 3.5 mph - N/A   Clear
4:36 AM 12.2 °F - 10.4 °F 92% 29.81 in 10.0 mi Calm Calm - N/A   Clear
4:56 AM 10.4 °F - 8.6 °F 92% 29.81 in 10.0 mi Calm Calm - N/A   Clear
5:16 AM 10.4 °F - 8.6 °F 92% 29.82 in 10.0 mi Calm Calm - N/A   Clear
5:36 AM 10.4 °F - 8.6 °F 92% 29.82 in 10.0 mi Calm Calm - N/A   Clear
5:56 AM 10.4 °F - 8.6 °F 92% 29.82 in 10.0 mi Calm Calm - N/A   Clear
6:16 AM 10.4 °F - 8.6 °F 92% 29.82 in 10.0 mi Calm Calm - N/A   Clear
6:36 AM 12.2 °F - 8.6 °F 85% 29.82 in 10.0 mi Calm Calm - N/A   Clear
6:56 AM 12.2 °F 4.3 °F 10.4 °F 92% 29.82 in 10.0 mi SW 4.6 mph - N/A   Clear
7:16 AM 8.6 °F - 6.8 °F 92% 29.82 in 10.0 mi Calm Calm - N/A   Clear
7:36 AM 8.6 °F 2.0 °F 6.8 °F 92% 29.82 in 10.0 mi West 3.5 mph - N/A   Clear
7:56 AM 10.4 °F - 8.6 °F 92% 29.82 in 10.0 mi Calm Calm - N/A   Clear
8:16 AM 10.4 °F - 8.6 °F 92% 29.82 in 10.0 mi Calm Calm - N/A   Clear
8:36 AM 10.4 °F - 8.6 °F 92% 29.82 in 10.0 mi Calm Calm - N/A   Partly Cloudy
8:56 AM 12.2 °F - 8.6 °F 85% 29.82 in 10.0 mi Calm Calm - N/A   Clear
9:16 AM 15.8 °F - 12.2 °F 86% 29.82 in 10.0 mi Calm Calm - N/A   Clear
9:36 AM 17.6 °F - 12.2 °F 79% 29.82 in 10.0 mi Calm Calm - N/A   Clear
9:56 AM 19.4 °F - 14.0 °F 80% 29.82 in 10.0 mi Calm Calm - N/A   Clear
10:16 AM 23.0 °F - 15.8 °F 74% 29.83 in 10.0 mi Calm Calm - N/A   Clear
10:36 AM 24.8 °F - 15.8 °F 69% 29.83 in 10.0 mi Calm Calm - N/A   Partly Cloudy
10:56 AM 26.6 °F - 15.8 °F 64% 29.83 in 10.0 mi Calm Calm - N/A   Scattered Clouds
11:16 AM 28.4 °F - 17.6 °F 64% 29.83 in 10.0 mi Calm Calm - N/A   Partly Cloudy
11:36 AM 30.2 °F - 17.6 °F 60% 29.83 in 10.0 mi Calm Calm - N/A   Clear
11:56 AM 30.2 °F - 17.6 °F 60% 29.83 in 10.0 mi Calm Calm - N/A   Clear
12:16 PM 33.8 °F - 15.8 °F 48% 29.83 in 10.0 mi Calm Calm - N/A   Clear
12:36 PM 33.8 °F - 15.8 °F 48% 29.84 in 10.0 mi Calm Calm - N/A   Clear
12:56 PM 32.0 °F - 17.6 °F 55% 29.84 in 10.0 mi Calm Calm - N/A   Clear
1:16 PM 33.8 °F 29.6 °F 15.8 °F 48% 29.83 in 10.0 mi SSE 4.6 mph - N/A   Clear
1:36 PM 33.8 °F 27.0 °F 17.6 °F 52% 29.83 in 10.0 mi ESE 8.1 mph - N/A   Clear
1:56 PM 33.8 °F 25.8 °F 17.6 °F 52% 29.82 in 10.0 mi ESE 10.4 mph - N/A   Clear
2:16 PM 33.8 °F 28.6 °F 17.6 °F 52% 29.82 in 10.0 mi SE 5.8 mph - N/A   Clear
2:36 PM 33.8 °F 27.0 °F 17.6 °F 52% 29.81 in 10.0 mi SE 8.1 mph - N/A   Clear
2:56 PM 33.8 °F 26.4 °F 17.6 °F 52% 29.81 in 10.0 mi ESE 9.2 mph - N/A   Clear
3:16 PM 33.8 °F 27.7 °F 17.6 °F 52% 29.81 in 10.0 mi SSE 6.9 mph - N/A   Clear
3:36 PM 32.0 °F 25.6 °F 17.6 °F 55% 29.82 in 10.0 mi SE 6.9 mph - N/A   Clear
3:56 PM 32.0 °F 28.7 °F 17.6 °F 55% 29.82 in 10.0 mi SE 3.5 mph 19.6 mph N/A   Clear
4:16 PM 32.0 °F 27.5 °F 17.6 °F 55% 29.82 in 10.0 mi SE 4.6 mph - N/A   Clear
4:36 PM 30.2 °F 24.3 °F 17.6 °F 60% 29.82 in 10.0 mi SE 5.8 mph - N/A   Clear
4:56 PM 30.2 °F 25.4 °F 17.6 °F 60% 29.82 in 10.0 mi ESE 4.6 mph - N/A   Clear
5:16 PM 30.2 °F 24.3 °F 17.6 °F 60% 29.83 in 10.0 mi ESE 5.8 mph - N/A   Clear
5:36 PM 28.4 °F 23.3 °F 17.6 °F 64% 29.84 in 10.0 mi ESE 4.6 mph - N/A   Clear
5:56 PM 28.4 °F - 17.6 °F 64% 29.84 in 10.0 mi Calm Calm - N/A   Clear
6:16 PM 26.6 °F 22.6 °F 15.8 °F 64% 29.83 in 10.0 mi ESE 3.5 mph - N/A   Clear
6:36 PM 26.6 °F - 15.8 °F 64% 29.84 in 10.0 mi Calm Calm - N/A   Clear
6:56 PM 24.8 °F - 15.8 °F 69% 29.83 in 10.0 mi Calm Calm - N/A   Clear
7:16 PM 24.8 °F - 15.8 °F 69% 29.82 in 10.0 mi Calm Calm - N/A   Clear
7:36 PM 24.8 °F 20.5 °F 15.8 °F 69% 29.82 in 10.0 mi SW 3.5 mph - N/A   Clear
7:56 PM 21.2 °F - 15.8 °F 80% 29.82 in 10.0 mi Calm Calm - N/A   Partly Cloudy
8:16 PM 21.2 °F - 14.0 °F 74% 29.82 in 10.0 mi Calm Calm - N/A   Mostly Cloudy
8:36 PM 19.4 °F - 14.0 °F 80% 29.81 in 10.0 mi Calm Calm - N/A   Partly Cloudy
8:56 PM 19.4 °F - 14.0 °F 80% 29.81 in 10.0 mi Calm Calm - N/A   Scattered Clouds
9:16 PM 19.4 °F 14.3 °F 12.2 °F 74% 29.80 in 10.0 mi SW 3.5 mph - N/A   Scattered Clouds
9:36 PM 23.0 °F 15.8 °F 15.8 °F 74% 29.79 in 10.0 mi WSW 5.8 mph - N/A   Partly Cloudy
9:56 PM 21.2 °F 16.4 °F 14.0 °F 74% 29.78 in 10.0 mi WSW 3.5 mph - N/A   Clear
10:16 PM 23.0 °F 14.7 °F 15.8 °F 74% 29.78 in 10.0 mi SW 6.9 mph - N/A   Mostly Cloudy
10:36 PM 24.8 °F 19.1 °F 15.8 °F 69% 29.78 in 10.0 mi SW 4.6 mph - N/A   Overcast
10:56 PM 24.8 °F 20.5 °F 15.8 °F 69% 29.77 in 10.0 mi WSW 3.5 mph - N/A   Mostly Cloudy
11:16 PM 24.8 °F 17.9 °F 17.6 °F 74% 29.76 in 10.0 mi SW 5.8 mph - N/A   Partly Cloudy
11:36 PM 24.8 °F 19.1 °F 17.6 °F 74% 29.76 in 10.0 mi South 4.6 mph - N/A   Clear
11:56 PM 24.8 °F 19.1 °F 17.6 °F 74% 29.76 in 10.0 mi SSW 4.6 mph - N/A   Clear